Temperature
14 14 14 14 14 14 15 15 15 15 15 15 16 16 16 16 16 16 16 16 15 15 15 15 15 14 14 14 14 14 14 14 14 15 15 15 15 15 15 15 15 15 15
14 14 14 14 14 14 14 15 15 15 15 15 16 16 16 16 16 15 15 15 15 15 15 15 15 15 14 14 14 14 14 14 14 14 14 14 15 15 15 15 14 14 15
13 14 14 14 14 14 14 15 15 15 15 15 15 16 16 16 15 15 15 15 15 15 15 15 15 14 14 14 14 14 14 14 14 14 14 14 14 14 14 14 14 14 14
13 13 14 14 14 14 14 15 15 15 15 15 15 15 15 15 15 15 15 15 15 15 15 15 15 14 14 14 14 14 14 14 14 14 14 14 14 14 14 14 14 14 14
13 13 13 13 14 14 14 14 15 15 15 15 15 15 15 15 15 15 15 15 15 15 15 15 15 15 14 14 14 14 14 14 14 14 13 13 13 14 14 14 13 13 13
12 13 13 13 13 13 13 14 14 14 14 14 15 15 15 15 15 15 15 15 15 15 15 15 15 15 15 14 14 14 14 14 14 13 13 13 13 13 13 13 13 13 13
12 12 12 12 12 13 13 13 13 13 13 13 14 14 14 14 14 15 15 15 15 15 15 15 15 14 14 14 14 14 14 14 14 14 13 13 13 13 13 13 13 13 12
12 12 12 12 12 12 12 12 12 12 12 12 13 13 13 13 14 14 14 15 15 14 14 14 14 14 14 14 14 14 14 14 14 14 13 13 13 13 13 13 13 12 12
12 12 12 12 12 12 12 12 12 12 12 12 12 12 12 12 13 13 14 14 14 14 14 14 14 14 14 14 14 14 14 14 14 13 13 13 13 13 13 13 12 12 12
12 11 11 12 12 12 12 11 11 11 11 11 11 11 11 12 12 13 13 13 13 13 13 14 14 14 14 14 14 14 14 13 13 13 13 13 13 13 13 12 12 12 12
12 12 11 11 11 11 11 11 11 11 11 11 11 11 11 11 12 12 12 13 13 13 13 13 13 13 14 14 14 14 13 13 13 13 13 13 13 12 12 12 12 12 12
12 12 11 11 11 11 11 11 10 10 10 10 10 10 11 11 11 12 12 12 12 12 12 13 13 13 13 13 13 13 13 13 13 13 13 12 12 12 12 12 12 12 11
13 12 12 11 11 11 11 10 10 10 10 10 10 10 10 11 11 11 12 12 12 12 12 12 12 12 12 13 13 13 13 12 12 12 12 12 12 12 11 11 11 11 11
13 13 12 11 11 11 11 10 10 10 10 10 10 10 10 10 11 11 11 11 11 11 11 11 11 12 12 12 12 12 12 12 11 11 11 11 11 11 11 11 11 11 11
13 13 12 11 11 11 10 10 10 10 10 10 10 10 10 10 10 10 11 11 11 11 11 11 11 11 11 11 11 11 11 11 11 11 11 10 10 10 10 10 10 10 10
13 13 12 12 11 11 10 10 10 10 10 10 10 10 10 10 10 10 10 10 10 10 10 10 10 10 10 10 10 10 10 10 10 10 10 10 10 10 10 10 10 10 9
13 13 12 11 11 11 11 10 10 10 10 10 10 10 10 10 10 10 10 10 10 10 10 10 9 9 9 9 9 9 9 9 9 9 9 9 9 9 9 9 9 9 9
13 13 12 12 11 11 11 11 10 10 10 10 10 10 10 9 9 9 9 9 9 9 9 9 9 9 9 9 9 9 8 9 9 9 9 9 8 8 8 8 8 8 8
13 13 12 12 11 11 11 11 11 10 10 10 10 10 9 9 9 9 9 9 9 9 9 9 9 9 9 9 8 8 8 8 8 8 8 8 8 8 8 8 8 8 8
13 13 12 12 12 12 11 11 11 11 10 10 10 10 9 9 9 9 9 9 9 8 8 8 8 8 8 8 8 8 8 7 7 7 7 7 7 7 7 7 7 7 7
13 13 13 12 12 12 12 11 11 11 11 10 10 10 9 9 9 9 9 9 9 8 8 8 8 8 8 8 8 8 7 7 7 7 6 6 6 6 6 6 6 6 7
14 13 13 13 12 12 12 11 11 11 11 10 10 10 9 9 9 9 8 8 8 8 8 8 8 8 8 8 8 8 7 7 7 6 6 6 5 6 6 6 6 6 6
14 14 13 13 12 12 12 12 11 11 11 10 10 10 10 9 9 9 8 8 8 8 8 8 8 8 8 8 8 8 8 7 7 7 6 5 6 6 5 5 5 5 5
14 13 13 13 13 12 12 12 12 11 11 11 10 10 10 9 9 9 9 8 8 9 9 8 8 8 8 8 8 8 8 8 7 7 6 6 5 5 5 5 5 5 5
14 13 13 13 13 12 12 12 12 12 11 11 11 10 10 10 9 9 9 9 9 9 9 9 9 8 8 9 8 8 8 8 7 7 6 6 5 5 5 5 5 5 5
14 13 13 13 13 13 12 12 12 12 12 11 11 10 10 10 9 9 9 9 9 9 9 9 9 9 9 9 9 8 8 8 7 7 6 6 6 6 5 5 5 5 5
Wind_Speed
7 6 5 5 4 4 3 1 1 1 2 4 4 3 3 4 4 3 3 3 2 2 2 3 2 2 2 2 2 3 3 4 4 3 3 2 2 2 3 6 6 12 16
9 7 7 6 5 4 3 2 2 2 3 3 2 1 1 2 2 3 2 3 3 2 2 2 2 2 2 2 2 3 3 4 4 4 3 3 3 2 2 3 3 8 10
8 7 6 6 5 5 4 3 3 3 3 1 0 1 2 1 1 1 2 3 3 3 2 2 2 2 2 2 3 3 2 3 3 3 3 2 1 1 1 3 3 3 6
8 8 7 6 5 5 5 5 5 5 5 4 3 1 1 1 0 1 1 1 1 1 1 1 2 3 2 1 0 1 1 2 2 2 2 1 1 0 1 2 3 3 3
8 8 8 7 6 6 7 7 7 7 8 7 6 5 5 4 5 6 5 3 2 1 0 2 5 6 5 3 2 2 2 0 0 1 1 0 1 1 2 2 2 2 2
9 9 8 8 9 8 8 9 8 8 8 8 8 7 7 7 9 10 7 6 5 3 1 1 5 6 6 4 4 3 2 2 2 1 0 0 1 2 2 2 2 1 2
8 8 9 10 10 10 10 9 9 8 8 8 8 8 7 8 10 9 8 6 6 5 4 1 1 4 4 4 5 4 3 2 1 1 1 0 0 2 2 2 2 2 2
8 9 9 9 9 9 9 9 9 7 7 7 7 7 6 8 11 9 8 5 5 5 4 2 1 3 3 4 1 1 4 4 3 1 2 2 2 1 2 2 2 1 0
8 8 8 8 8 8 8 8 7 7 6 6 6 6 6 7 11 10 8 4 4 4 3 4 5 6 7 6 4 3 2 2 3 4 4 3 2 2 2 2 1 0 1
7 7 7 7 7 8 8 7 6 6 6 5 5 6 6 7 10 12 10 4 4 3 3 5 8 7 6 7 5 4 4 3 2 2 1 0 1 2 2 1 0 0 1
6 6 7 7 6 7 7 6 6 6 6 6 6 6 6 7 9 11 11 5 4 3 3 3 4 6 6 6 5 5 3 4 4 3 3 3 3 2 1 1 0 1 0
4 5 5 6 7 7 6 7 7 7 7 7 7 6 6 7 9 10 10 9 7 5 4 4 4 6 6 6 5 5 6 5 3 4 4 4 4 3 3 2 3 2 2
3 4 5 6 6 7 7 8 7 7 7 6 6 6 6 7 9 12 10 10 9 6 5 6 6 6 5 4 5 6 5 4 4 4 4 3 2 3 3 3 3 4 4
2 4 5 6 6 7 6 6 7 7 7 7 7 7 6 7 8 9 7 7 7 5 4 5 6 7 6 6 5 5 5 5 4 4 3 3 2 3 4 3 3 3 3
4 5 6 5 5 5 6 5 6 6 5 5 5 6 6 7 8 10 8 7 6 6 5 5 5 6 6 6 6 6 6 6 6 5 4 4 4 4 3 3 3 3 3
5 5 4 4 3 3 5 4 7 6 7 9 10 8 5 7 9 12 12 13 13 12 8 7 7 6 6 6 6 6 6 6 6 5 5 5 4 4 4 4 4 4 3
4 4 3 3 2 2 3 3 3 2 5 8 9 10 9 9 11 11 10 11 13 12 9 7 7 7 6 6 6 6 6 6 6 6 6 6 5 5 4 4 4 4 4
3 4 2 2 2 3 2 1 2 3 2 2 3 5 7 9 11 13 12 8 8 9 7 7 7 7 7 7 6 6 6 6 6 6 6 6 5 5 4 4 4 5 4
3 3 2 2 2 2 1 1 2 2 3 3 2 1 2 3 7 11 10 7 6 6 6 6 6 6 6 6 6 5 5 6 6 6 5 6 5 4 4 4 4 5 4
3 4 2 1 0 2 1 1 1 2 3 4 4 4 3 3 4 6 6 6 5 5 5 5 5 6 5 5 5 5 5 5 6 5 5 5 5 5 5 5 4 4 4
3 4 2 2 1 1 1 1 2 2 3 4 4 3 4 3 4 4 4 5 4 4 4 4 4 4 5 4 4 5 6 5 5 5 5 5 5 4 4 4 5 5 4
1 4 4 3 2 2 1 1 2 3 3 4 4 3 2 2 3 3 4 4 3 3 3 3 3 3 2 3 3 3 4 5 5 5 4 4 4 4 4 4 5 4 5
4 2 3 3 4 4 2 2 2 2 3 3 4 4 3 2 3 3 3 2 2 3 4 4 3 2 4 5 5 5 5 5 5 4 4 4 4 4 4 4 5 5 5
5 3 2 3 4 4 4 3 3 3 3 3 4 4 4 3 3 3 3 2 2 4 4 4 4 4 6 7 9 10 9 8 8 8 6 4 4 4 4 4 4 5 4
5 4 2 2 3 4 3 3 3 3 3 3 4 4 4 4 3 3 3 2 3 3 3 3 4 5 7 10 10 8 8 8 8 9 9 5 3 4 4 4 4 4 5
5 5 3 2 2 3 3 3 3 3 3 4 4 5 5 4 4 4 3 3 3 3 3 4 4 4 8 10 8 8 8 9 10 11 9 4 3 4 5 4 4 4 5
Wind_Direction
31 40 48 51 57 57 51 27 343 297 269 261 247 229 178 165 167 158 185 161 219 226 200 217 228 213 197 213 214 216 213 201 226 252 237 231 219 188 180 228 211 182 195
25 31 35 36 36 29 1 322 310 283 263 258 256 246 146 131 147 156 166 162 196 217 216 209 214 200 206 214 216 222 219 209 212 245 252 229 228 216 203 231 214 196 195
22 26 30 27 25 14 355 346 337 321 313 305 336 84 98 109 132 146 174 190 202 207 204 209 200 176 207 207 212 217 223 227 211 224 247 231 218 223 224 244 245 244 217
27 23 25 28 19 8 353 351 2 2 359 359 2 14 105 143 151 240 237 206 220 199 209 195 122 106 75 44 185 212 210 218 211 212 227 224 208 228 196 237 258 252 247
35 30 25 26 22 17 13 13 15 10 7 3 5 13 27 31 30 23 3 356 347 13 314 90 95 99 93 75 64 35 26 38 162 184 213 182 198 206 220 212 237 256 266
42 32 25 29 28 22 22 25 16 16 11 7 12 23 27 33 32 26 9 349 338 331 315 144 147 147 143 143 138 119 79 56 47 45 78 220 231 209 198 197 203 204 266
42 39 30 30 30 26 24 22 16 21 22 17 19 23 33 35 23 13 5 338 320 323 324 322 124 125 153 171 183 189 184 174 144 52 40 16 227 194 173 196 210 208 225
35 38 37 34 30 27 26 20 16 20 23 22 22 19 25 27 17 5 350 317 300 303 313 338 41 91 66 47 62 201 174 175 188 179 68 70 73 105 152 175 192 194 196
37 38 38 36 32 27 23 17 14 14 17 21 22 19 21 25 16 6 353 309 301 308 344 31 53 73 60 38 9 12 61 110 140 119 95 104 110 98 98 94 102 141 277
34 37 40 42 41 34 23 13 11 14 12 17 22 23 28 26 20 15 7 343 339 347 30 64 63 71 58 36 15 26 41 13 35 115 112 124 211 197 181 183 187 204 301
37 38 37 32 45 47 29 16 14 16 18 21 24 24 34 32 18 17 14 10 356 3 42 59 56 62 58 44 39 47 41 353 356 43 59 51 48 70 109 281 45 140 193
49 52 56 47 38 39 36 25 22 18 21 25 23 22 23 29 24 11 16 22 14 36 48 51 56 59 60 53 55 46 20 4 18 48 54 48 41 30 17 12 21 34 52
53 63 60 64 64 43 34 32 28 25 22 21 21 21 22 22 14 9 15 26 33 48 57 60 62 61 60 65 51 34 25 30 43 55 57 52 39 30 28 18 15 25 30
84 85 77 61 62 57 38 36 40 25 18 15 18 19 23 28 15 4 5 20 30 42 61 66 59 51 52 55 49 39 44 43 48 52 54 51 39 39 35 27 18 12 25
62 74 88 84 81 83 69 45 43 53 33 18 10 20 22 24 8 9 21 21 16 26 38 49 46 43 43 41 40 38 38 36 37 33 39 43 37 36 30 22 19 20 30
58 55 67 93 86 106 118 98 56 56 48 48 43 43 56 33 16 21 25 28 33 41 53 52 47 45 45 42 39 36 35 31 29 30 32 34 34 34 32 23 23 30 30
73 68 64 68 73 78 111 137 135 90 47 46 47 47 45 31 27 23 25 35 37 45 53 49 45 40 39 40 38 37 34 28 27 34 34 31 27 25 29 28 23 23 20
96 103 87 93 77 76 67 65 117 145 146 116 58 47 43 39 33 27 32 49 46 46 48 45 40 36 36 35 29 29 32 29 29 32 32 27 24 23 26 27 28 21 13
55 79 73 72 92 100 87 70 79 95 113 121 121 70 23 45 43 35 36 48 54 50 50 47 39 37 35 32 26 24 33 32 28 29 29 24 19 20 20 16 16 17 19
91 84 51 347 194 144 131 97 79 74 81 84 70 42 13 40 48 40 39 41 49 50 49 53 47 42 36 30 25 24 33 39 30 25 19 14 11 15 13 9 10 14 17
160 146 175 267 261 106 100 110 107 95 91 94 88 56 21 48 62 57 54 47 46 45 46 51 54 46 38 33 27 26 31 35 31 20 12 8 8 6 2 6 9 19 23
248 172 188 199 150 104 54 77 120 122 125 128 143 142 74 67 70 67 66 55 55 53 49 61 71 63 48 42 29 23 33 34 25 15 6 1 359 359 4 12 13 19 25
290 249 182 156 137 132 206 234 182 161 150 146 142 135 127 106 92 83 82 69 59 63 56 50 56 53 48 40 43 46 41 25 3 353 353 356 1 5 10 15 21 30 32
295 286 230 166 163 172 208 217 192 175 161 145 137 136 136 132 125 113 97 79 76 81 76 66 52 48 63 57 56 56 43 22 4 353 345 339 353 1 11 20 27 31 36
289 287 264 205 185 190 211 212 198 186 171 159 150 147 149 148 145 141 139 125 103 98 89 78 73 55 65 77 67 52 34 26 18 0 339 330 11 19 20 36 43 43 45
270 279 277 247 214 201 209 215 211 200 175 163 153 148 151 153 153 154 154 146 141 141 128 101 86 75 80 82 66 46 31 22 13 4 353 348 56 43 25 35 47 50 57
Height
1499 1498 1498 1498 1499 1500 1501 1502 1503 1505 1506 1508 1509 1511 1513 1514 1515 1516 1517 1517 1518 1519 1520 1520 1521 1521 1521 1522 1523 1524 1525 1526 1526 1527 1528 1529 1529 1530 1531 1532 1534 1535 1536
1502 1502 1502 1502 1503 1503 1504 1505 1505 1506 1507 1508 1509 1511 1512 1513 1514 1515 1516 1516 1517 1518 1518 1519 1519 1519 1519 1520 1520 1521 1521 1522 1523 1523 1524 1525 1525 1526 1527 1528 1530 1530 1532
1506 1505 1505 1505 1505 1505 1505 1506 1506 1507 1507 1508 1509 1510 1511 1512 1514 1515 1515 1516 1516 1517 1517 1518 1518 1518 1518 1518 1518 1518 1518 1519 1519 1520 1520 1521 1521 1522 1523 1524 1525 1526 1528
1509 1508 1507 1507 1506 1506 1506 1506 1507 1507 1508 1508 1509 1510 1511 1512 1513 1513 1514 1515 1516 1516 1517 1517 1517 1517 1517 1517 1517 1517 1517 1517 1517 1517 1517 1518 1518 1519 1519 1520 1521 1522 1523
1512 1511 1510 1509 1508 1508 1507 1507 1507 1507 1508 1508 1508 1509 1510 1511 1511 1512 1513 1514 1515 1516 1516 1516 1516 1516 1516 1516 1516 1516 1516 1516 1515 1515 1516 1516 1516 1516 1516 1516 1517 1518 1519
1516 1514 1512 1511 1509 1509 1508 1507 1507 1507 1507 1507 1507 1508 1508 1509 1510 1511 1512 1513 1514 1515 1515 1515 1515 1515 1515 1515 1515 1515 1515 1515 1515 1515 1514 1514 1514 1514 1514 1514 1514 1515 1515
1519 1517 1515 1513 1512 1510 1509 1508 1508 1507 1507 1506 1506 1506 1506 1507 1507 1508 1509 1511 1512 1513 1513 1514 1514 1515 1515 1515 1515 1515 1515 1515 1515 1515 1514 1514 1514 1513 1513 1513 1513 1513 1513
1523 1520 1518 1516 1514 1512 1511 1510 1509 1508 1507 1507 1506 1506 1506 1506 1506 1506 1507 1508 1509 1511 1512 1512 1513 1513 1514 1514 1515 1515 1515 1515 1515 1515 1514 1514 1514 1513 1512 1512 1512 1512 1512
1525 1523 1521 1519 1516 1515 1513 1512 1510 1509 1508 1508 1507 1506 1505 1505 1504 1504 1505 1506 1507 1508 1509 1510 1511 1511 1513 1513 1514 1514 1514 1515 1515 1515 1514 1514 1513 1513 1513 1512 1512 1511 1511
1529 1526 1524 1522 1519 1517 1515 1514 1513 1511 1510 1509 1508 1507 1506 1505 1504 1504 1504 1505 1505 1507 1508 1508 1509 1510 1511 1512 1512 1513 1513 1514 1514 1514 1514 1513 1513 1513 1512 1512 1512 1511 1511
1531 1529 1527 1525 1522 1520 1518 1516 1515 1514 1512 1511 1510 1509 1508 1507 1505 1505 1504 1504 1505 1505 1506 1507 1508 1509 1509 1510 1511 1512 1512 1513 1513 1513 1513 1513 1513 1512 1512 1512 1512 1511 1511
1534 1532 1530 1527 1525 1523 1521 1519 1517 1516 1515 1514 1512 1511 1510 1509 1507 1506 1506 1505 1505 1506 1506 1506 1507 1508 1509 1509 1510 1511 1512 1512 1512 1512 1513 1513 1512 1512 1512 1512 1511 1511 1511
1536 1534 1532 1530 1528 1525 1523 1521 1519 1518 1517 1515 1514 1513 1512 1511 1509 1508 1507 1507 1507 1507 1507 1507 1507 1508 1509 1509 1510 1511 1511 1511 1512 1512 1512 1512 1512 1512 1512 1511 1511 1510 1510
1538 1536 1534 1533 1530 1528 1526 1524 1522 1520 1519 1518 1517 1516 1515 1513 1511 1510 1509 1509 1508 1508 1508 1508 1509 1509 1510 1510 1511 1511 1511 1511 1512 1512 1512 1512 1512 1512 1512 1511 1511 1510 1510
1540 1538 1536 1534 1533 1531 1529 1527 1525 1524 1522 1521 1520 1518 1517 1515 1514 1513 1512 1511 1511 1510 1510 1510 1510 1511 1511 1511 1511 1512 1512 1512 1512 1512 1513 1512 1512 1512 1512 1511 1511 1510 1510
1540 1539 1538 1536 1535 1533 1532 1531 1529 1527 1526 1524 1523 1521 1520 1519 1517 1516 1515 1514 1513 1513 1513 1512 1512 1512 1513 1513 1513 1513 1513 1513 1513 1513 1513 1513 1512 1512 1512 1511 1511 1510 1510
1541 1540 1539 1538 1536 1535 1534 1533 1532 1531 1530 1528 1526 1525 1523 1521 1520 1519 1518 1517 1516 1515 1515 1514 1515 1515 1515 1515 1514 1514 1514 1514 1513 1513 1513 1513 1512 1512 1512 1511 1511 1510 1509
1541 1540 1539 1538 1538 1537 1536 1535 1534 1533 1532 1531 1529 1528 1526 1524 1523 1521 1520 1519 1518 1517 1517 1516 1516 1516 1516 1516 1515 1515 1515 1514 1514 1513 1513 1513 1512 1512 1512 1511 1511 1510 1509
1542 1541 1540 1539 1539 1538 1538 1537 1536 1535 1534 1533 1532 1530 1529 1527 1525 1524 1522 1521 1520 1519 1519 1518 1518 1517 1517 1516 1516 1515 1515 1514 1513 1513 1513 1512 1512 1512 1512 1511 1511 1510 1509
1541 1540 1540 1540 1539 1539 1539 1538 1538 1537 1536 1535 1534 1532 1531 1529 1527 1526 1524 1523 1522 1521 1520 1520 1519 1518 1517 1517 1516 1515 1515 1514 1513 1513 1512 1512 1512 1512 1512 1511 1511 1510 1509
1541 1540 1540 1540 1540 1540 1540 1539 1539 1538 1537 1536 1535 1534 1532 1530 1529 1527 1526 1525 1523 1522 1522 1521 1520 1519 1518 1517 1516 1515 1514 1514 1513 1512 1512 1512 1512 1512 1511 1511 1511 1510 1509
1541 1540 1540 1540 1540 1540 1540 1539 1539 1539 1538 1537 1536 1535 1533 1532 1530 1529 1527 1526 1525 1523 1523 1522 1521 1520 1519 1518 1517 1516 1515 1514 1513 1512 1512 1512 1512 1512 1511 1511 1510 1509 1509
1540 1540 1540 1539 1539 1539 1539 1539 1539 1539 1538 1537 1536 1535 1534 1533 1531 1530 1528 1527 1525 1524 1523 1522 1521 1520 1519 1518 1517 1516 1515 1514 1513 1513 1512 1512 1512 1512 1511 1511 1510 1509 1509
1538 1539 1539 1539 1538 1538 1538 1538 1538 1538 1538 1537 1537 1535 1534 1533 1531 1530 1529 1527 1526 1525 1524 1523 1522 1521 1520 1519 1518 1517 1516 1514 1514 1513 1513 1512 1512 1512 1512 1511 1511 1510 1509
1536 1537 1538 1538 1537 1537 1537 1537 1537 1537 1537 1536 1536 1535 1534 1533 1531 1530 1529 1527 1526 1525 1524 1523 1522 1522 1520 1519 1519 1517 1516 1515 1514 1514 1513 1513 1513 1512 1512 1511 1511 1510 1509
1534 1534 1535 1535 1536 1536 1536 1536 1536 1536 1535 1535 1534 1534 1533 1532 1531 1530 1528 1527 1527 1526 1525 1524 1523 1522 1521 1520 1519 1518 1517 1516 1515 1515 1514 1513 1513 1513 1512 1512 1511 1511 1510